Time,TemperatureF,DewpointF,PressureIn,WindDirection,WindDirectionDegrees,WindSpeedMPH,WindSpeedGustMPH,Humidity,HourlyPrecipIn,Conditions,Clouds,dailyrainin,SolarRadiationWatts/m^2,SoftwareType,DateUTC
2013-03-24 00:02:00,69.0,64.0,-100.00,North,9,1.0,5.0,83,0.00,,,0.00,0.000000,,2013-03-24 10:02:00,
2013-03-24 00:12:00,69.0,64.0,-100.00,North,9,1.0,5.0,83,0.00,,,0.00,0.000000,,2013-03-24 10:12:00,
2013-03-24 00:22:00,69.0,64.0,-100.00,North,9,1.0,5.0,83,0.00,,,0.00,0.000000,,2013-03-24 10:22:00,
2013-03-24 00:32:00,69.0,64.0,-100.00,North,9,1.0,5.0,83,0.00,,,0.00,0.000000,,2013-03-24 10:32:00,
2013-03-24 01:02:00,69.0,64.0,-100.00,WNW,293,3.0,4.0,85,0.00,,,0.00,0.000000,,2013-03-24 11:02:00,
2013-03-24 01:12:00,69.0,64.0,-100.00,WNW,293,3.0,4.0,85,0.00,,,0.00,0.000000,,2013-03-24 11:12:00,
2013-03-24 01:22:00,69.0,64.0,-100.00,WNW,293,3.0,4.0,85,0.00,,,0.00,0.000000,,2013-03-24 11:22:00,
2013-03-24 01:32:00,69.0,64.0,-100.00,WNW,293,3.0,4.0,85,0.00,,,0.00,0.000000,,2013-03-24 11:32:00,
2013-03-24 02:02:00,69.0,64.0,-100.00,NW,306,4.0,5.0,84,0.00,,,-99.99,0.000000,,2013-03-24 12:02:00,
2013-03-24 02:12:00,69.0,64.0,-100.00,NW,306,4.0,5.0,84,0.00,,,-99.99,0.000000,,2013-03-24 12:12:00,
2013-03-24 02:22:00,69.0,64.0,-100.00,NW,306,4.0,5.0,84,0.00,,,-99.99,0.000000,,2013-03-24 12:22:00,
2013-03-24 02:32:00,69.0,64.0,-100.00,NW,306,4.0,5.0,84,0.00,,,-99.99,0.000000,,2013-03-24 12:32:00,
2013-03-24 03:02:00,68.0,63.0,-100.00,North,3,0.0,5.0,84,0.00,,,-99.99,0.000000,,2013-03-24 13:02:00,
2013-03-24 03:12:00,68.0,63.0,-100.00,North,3,0.0,5.0,84,0.00,,,-99.99,0.000000,,2013-03-24 13:12:00,
2013-03-24 03:22:00,68.0,63.0,-100.00,North,3,0.0,5.0,84,0.00,,,-99.99,0.000000,,2013-03-24 13:22:00,
2013-03-24 03:32:00,68.0,63.0,-100.00,North,3,0.0,5.0,84,0.00,,,-99.99,0.000000,,2013-03-24 13:32:00,
2013-03-24 04:02:00,68.0,63.0,-100.00,NNE,32,1.0,4.0,84,0.00,,,0.00,0.000000,,2013-03-24 14:02:00,
2013-03-24 04:12:00,68.0,63.0,-100.00,NNE,32,1.0,4.0,84,0.00,,,0.00,0.000000,,2013-03-24 14:12:00,
2013-03-24 04:22:00,68.0,63.0,-100.00,NNE,32,1.0,4.0,84,0.00,,,0.00,0.000000,,2013-03-24 14:22:00,
2013-03-24 04:32:00,68.0,63.0,-100.00,NNE,32,1.0,4.0,84,0.00,,,0.00,0.000000,,2013-03-24 14:32:00,
2013-03-24 05:02:00,68.0,63.0,-100.00,NW,315,2.0,5.0,84,0.00,,,0.00,0.000000,,2013-03-24 15:02:00,
2013-03-24 05:12:00,68.0,63.0,-100.00,NW,315,2.0,5.0,84,0.00,,,0.00,0.000000,,2013-03-24 15:12:00,
2013-03-24 05:22:00,68.0,63.0,-100.00,NW,315,2.0,5.0,84,0.00,,,0.00,0.000000,,2013-03-24 15:22:00,
2013-03-24 05:32:00,68.0,63.0,-100.00,NW,315,2.0,5.0,84,0.00,,,0.00,0.000000,,2013-03-24 15:32:00,
2013-03-24 06:02:00,68.0,63.0,-100.00,NE,45,2.0,4.0,85,0.00,,,0.00,0.000000,,2013-03-24 16:02:00,
2013-03-24 06:12:00,68.0,63.0,-100.00,NE,45,2.0,4.0,85,0.00,,,0.00,0.000000,,2013-03-24 16:12:00,
2013-03-24 06:22:00,68.0,63.0,-100.00,NE,45,2.0,4.0,85,0.00,,,0.00,0.000000,,2013-03-24 16:22:00,
2013-03-24 06:32:00,68.0,63.0,-100.00,NE,45,2.0,4.0,85,0.00,,,0.00,0.000000,,2013-03-24 16:32:00,
2013-03-24 07:02:00,68.0,62.0,-100.00,NNE,14,2.0,6.0,82,0.00,,,0.00,0.000000,,2013-03-24 17:02:00,
2013-03-24 07:12:00,68.0,62.0,-100.00,NNE,14,2.0,6.0,82,0.00,,,0.00,0.000000,,2013-03-24 17:12:00,
2013-03-24 07:22:00,68.0,62.0,-100.00,NNE,14,2.0,6.0,82,0.00,,,0.00,0.000000,,2013-03-24 17:22:00,
2013-03-24 07:32:00,68.0,62.0,-100.00,NNE,14,2.0,6.0,82,0.00,,,0.00,0.000000,,2013-03-24 17:32:00,
2013-03-24 08:02:00,69.0,63.0,-100.00,NNE,25,3.0,5.0,80,0.00,,,0.00,32.000000,,2013-03-24 18:02:00,
2013-03-24 08:12:00,69.0,63.0,-100.00,NNE,25,3.0,5.0,80,0.00,,,0.00,32.000000,,2013-03-24 18:12:00,
2013-03-24 08:22:00,69.0,63.0,-100.00,NNE,25,3.0,5.0,80,0.00,,,0.00,32.000000,,2013-03-24 18:22:00,
2013-03-24 08:32:00,69.0,63.0,-100.00,NNE,25,3.0,5.0,80,0.00,,,0.00,32.000000,,2013-03-24 18:32:00,
2013-03-24 09:02:00,73.0,64.0,-100.00,East,89,2.0,6.0,73,0.00,,,0.00,170.000000,,2013-03-24 19:02:00,
2013-03-24 09:12:00,73.0,64.0,-100.00,East,89,2.0,6.0,73,0.00,,,0.00,170.000000,,2013-03-24 19:12:00,
2013-03-24 09:22:00,73.0,64.0,-100.00,East,89,2.0,6.0,73,0.00,,,0.00,170.000000,,2013-03-24 19:22:00,
2013-03-24 09:31:00,73.0,64.0,-100.00,East,89,2.0,6.0,73,0.00,,,0.00,170.000000,,2013-03-24 19:31:00,
2013-03-24 10:02:00,76.0,63.0,-100.00,WSW,243,7.0,11.0,64,0.00,,,0.00,395.000000,,2013-03-24 20:02:00,
2013-03-24 10:12:00,76.0,63.0,-100.00,WSW,243,7.0,11.0,64,0.00,,,0.00,395.000000,,2013-03-24 20:12:00,
2013-03-24 10:22:00,76.0,63.0,-100.00,WSW,243,7.0,11.0,64,0.00,,,0.00,395.000000,,2013-03-24 20:22:00,
2013-03-24 11:02:00,78.0,66.0,-100.00,WSW,246,3.0,11.0,67,0.00,,,0.00,366.000000,,2013-03-24 21:02:00,
2013-03-24 11:12:00,78.0,66.0,-100.00,WSW,246,3.0,11.0,67,0.00,,,0.00,366.000000,,2013-03-24 21:12:00,
2013-03-24 11:22:00,78.0,66.0,-100.00,WSW,246,3.0,11.0,67,0.00,,,0.00,366.000000,,2013-03-24 21:22:00,
2013-03-24 11:32:00,78.0,66.0,-100.00,WSW,246,3.0,11.0,67,0.00,,,0.00,366.000000,,2013-03-24 21:32:00,
2013-03-24 12:02:00,78.0,60.0,-100.00,WSW,247,6.0,11.0,54,0.00,,,0.00,574.000000,,2013-03-24 22:02:00,
2013-03-24 12:12:00,78.0,60.0,-100.00,WSW,247,6.0,11.0,54,0.00,,,0.00,574.000000,,2013-03-24 22:12:00,
2013-03-24 12:22:00,78.0,60.0,-100.00,WSW,247,6.0,11.0,54,0.00,,,0.00,574.000000,,2013-03-24 22:22:00,
2013-03-24 12:32:00,78.0,60.0,-100.00,WSW,247,6.0,11.0,54,0.00,,,0.00,574.000000,,2013-03-24 22:32:00,
2013-03-24 13:02:00,78.0,61.0,-100.00,West,262,7.0,11.0,56,0.00,,,0.00,321.000000,,2013-03-24 23:02:00,
2013-03-24 13:12:00,78.0,61.0,-100.00,West,262,7.0,11.0,56,0.00,,,0.00,321.000000,,2013-03-24 23:12:00,
2013-03-24 13:22:00,78.0,61.0,-100.00,West,262,7.0,11.0,56,0.00,,,0.00,321.000000,,2013-03-24 23:22:00,
2013-03-24 13:32:00,78.0,61.0,-100.00,West,262,7.0,11.0,56,0.00,,,0.00,321.000000,,2013-03-24 23:32:00,
2013-03-24 14:02:00,80.0,60.0,-100.00,West,272,4.0,11.0,50,0.00,,,0.00,491.000000,,2013-03-25 00:02:00,
2013-03-24 14:12:00,80.0,60.0,-100.00,West,272,4.0,11.0,50,0.00,,,0.00,491.000000,,2013-03-25 00:12:00,
2013-03-24 14:22:00,80.0,60.0,-100.00,West,272,4.0,11.0,50,0.00,,,0.00,491.000000,,2013-03-25 00:22:00,
2013-03-24 14:32:00,80.0,60.0,-100.00,West,272,4.0,11.0,50,0.00,,,0.00,491.000000,,2013-03-25 00:32:00,
2013-03-24 15:02:00,77.0,60.0,-100.00,WSW,242,6.0,10.0,56,0.00,,,0.00,319.000000,,2013-03-25 01:02:00,
2013-03-24 15:12:00,77.0,60.0,-100.00,WSW,242,6.0,10.0,56,0.00,,,0.00,319.000000,,2013-03-25 01:12:00,
2013-03-24 15:22:00,77.0,60.0,-100.00,WSW,242,6.0,10.0,56,0.00,,,0.00,319.000000,,2013-03-25 01:22:00,
2013-03-24 15:32:00,77.0,60.0,-100.00,WSW,242,6.0,10.0,56,0.00,,,0.00,319.000000,,2013-03-25 01:32:00,
2013-03-24 16:02:00,79.0,63.0,-100.00,West,264,5.0,10.0,59,0.00,,,0.00,322.000000,,2013-03-25 02:02:00,
2013-03-24 16:12:00,79.0,63.0,-100.00,West,264,5.0,10.0,59,0.00,,,0.00,322.000000,,2013-03-25 02:12:00,
2013-03-24 16:22:00,79.0,63.0,-100.00,West,264,5.0,10.0,59,0.00,,,0.00,322.000000,,2013-03-25 02:22:00,
2013-03-24 16:32:00,79.0,63.0,-100.00,West,264,5.0,10.0,59,0.00,,,0.00,322.000000,,2013-03-25 02:32:00,
2013-03-24 17:02:00,76.0,61.0,-100.00,SW,232,6.0,9.0,60,0.00,,,0.00,393.000000,,2013-03-25 03:02:00,
2013-03-24 17:12:00,76.0,61.0,-100.00,SW,232,6.0,9.0,60,0.00,,,0.00,393.000000,,2013-03-25 03:12:00,
2013-03-24 17:22:00,76.0,61.0,-100.00,SW,232,6.0,9.0,60,0.00,,,0.00,393.000000,,2013-03-25 03:22:00,
2013-03-24 17:32:00,76.0,61.0,-100.00,SW,232,6.0,9.0,60,0.00,,,0.00,393.000000,,2013-03-25 03:32:00,
2013-03-24 18:02:00,75.0,62.0,-100.00,West,262,7.0,10.0,63,0.00,,,0.00,187.000000,,2013-03-25 04:02:00,
2013-03-24 18:12:00,75.0,62.0,-100.00,West,262,7.0,10.0,63,0.00,,,0.00,187.000000,,2013-03-25 04:12:00,
2013-03-24 18:22:00,75.0,62.0,-100.00,West,262,7.0,10.0,63,0.00,,,0.00,187.000000,,2013-03-25 04:22:00,
2013-03-24 18:32:00,75.0,62.0,-100.00,West,262,7.0,10.0,63,0.00,,,0.00,187.000000,,2013-03-25 04:32:00,
2013-03-24 19:03:00,73.0,63.0,-100.00,West,280,6.0,11.0,70,0.00,,,0.00,53.000000,,2013-03-25 05:03:00,
2013-03-24 19:12:00,73.0,63.0,-100.00,West,280,6.0,11.0,70,0.00,,,0.00,53.000000,,2013-03-25 05:12:00,
2013-03-24 19:22:00,73.0,63.0,-100.00,West,280,6.0,11.0,70,0.00,,,0.00,53.000000,,2013-03-25 05:22:00,
2013-03-24 19:32:00,73.0,63.0,-100.00,West,280,6.0,11.0,70,0.00,,,0.00,53.000000,,2013-03-25 05:32:00,
2013-03-24 20:02:00,72.0,63.0,-100.00,NNW,335,3.0,9.0,73,0.00,,,0.00,2.000000,,2013-03-25 06:02:00,
2013-03-24 20:12:00,72.0,63.0,-100.00,NNW,335,3.0,9.0,73,0.00,,,0.00,2.000000,,2013-03-25 06:12:00,
2013-03-24 20:22:00,72.0,63.0,-100.00,NNW,335,3.0,9.0,73,0.00,,,0.00,2.000000,,2013-03-25 06:22:00,
2013-03-24 20:32:00,72.0,63.0,-100.00,NNW,335,3.0,9.0,73,0.00,,,0.00,2.000000,,2013-03-25 06:32:00,
2013-03-24 21:02:00,71.0,62.0,-100.00,NE,35,2.0,5.0,74,0.00,,,0.00,0.000000,,2013-03-25 07:02:00,
2013-03-24 21:12:00,71.0,62.0,-100.00,NE,35,2.0,5.0,74,0.00,,,0.00,0.000000,,2013-03-25 07:12:00,
2013-03-24 21:21:00,71.0,62.0,-100.00,NE,35,2.0,5.0,74,0.00,,,0.00,0.000000,,2013-03-25 07:21:00,
2013-03-24 21:31:00,71.0,62.0,-100.00,NE,35,2.0,5.0,74,0.00,,,0.00,0.000000,,2013-03-25 07:31:00,
2013-03-24 22:02:00,71.0,62.0,-100.00,NW,317,3.0,5.0,73,0.00,,,0.00,0.000000,,2013-03-25 08:02:00,
2013-03-24 22:12:00,71.0,62.0,-100.00,NW,317,3.0,5.0,73,0.00,,,0.00,0.000000,,2013-03-25 08:12:00,
2013-03-24 22:22:00,71.0,62.0,-100.00,NW,317,3.0,5.0,73,0.00,,,0.00,0.000000,,2013-03-25 08:22:00,
2013-03-24 22:32:00,71.0,62.0,-100.00,NW,317,3.0,5.0,73,0.00,,,0.00,0.000000,,2013-03-25 08:32:00,
2013-03-24 23:02:00,70.0,62.0,-100.00,SE,126,0.0,4.0,76,0.00,,,0.00,0.000000,,2013-03-25 09:02:00,
2013-03-24 23:12:00,70.0,62.0,-100.00,SE,126,0.0,4.0,76,0.00,,,0.00,0.000000,,2013-03-25 09:12:00,
2013-03-24 23:22:00,70.0,62.0,-100.00,SE,126,0.0,4.0,76,0.00,,,0.00,0.000000,,2013-03-25 09:22:00,
2013-03-24 23:32:00,70.0,62.0,-100.00,SE,126,0.0,4.0,76,0.00,,,0.00,0.000000,,2013-03-25 09:32:00,